FW9747 Weather Reports


time (UTC)temp
F
wind
direction
speed
knots
gust
knots
rain 1hr
in
rain 24hr
in
rain mn
in
humidity
%
barometer
mb
20260502163056 60 0.0 0.0 0.00 0.00 0.00 37 1008.2
20260502161553 60 0.0 0.0 0.00 0.00 0.00 39 1008.0
20260502151603 52 0.0 0.0 0.00 0.00 0.00 59 1007.9
20260502123049 39 0.0 0.0 0.00 0.00 0.00 80 1008.6
20260502121548 38 0.0 0.0 0.00 0.00 0.00 79 1008.8
20260502114605 38 0.0 0.0 0.00 0.00 0.00 79 1008.9
20260502113051 37 0.0 0.0 0.00 0.00 0.00 80 1009.2
20260502111554 35 0.0 0.0 0.00 0.00 0.00 79 1009.4
20260502110053 37 0.0 0.0 0.00 0.00 0.00 78 1009.7
20260502104553 35 0.0 0.0 0.00 0.00 0.00 79 1009.8
20260502103050 35 0.0 0.0 0.00 0.00 0.00 79 1010.3
20260502101616 35 0.0 0.0 0.00 0.00 0.00 79 1010.3
20260502090107 34 0.0 0.0 0.00 0.00 0.00 78 1011.7
20260502080106 37 0.0 0.0 0.00 0.00 0.00 75 1012.2
20260502070116 39 0.0 0.0 0.00 0.00 0.00 71 1013.0
20260502064558 40 0.0 0.0 0.00 0.00 0.00 70 1013.3
20260502063057 40 0.0 0.0 0.00 0.00 0.00 70 1013.4
20260502061554 41 0.0 0.0 0.00 0.00 0.00 68 1013.6
20260502060052 42 0.0 0.0 0.00 0.00 0.00 68 1013.8
20260502054556 42 0.0 0.0 0.00 0.00 0.00 68 1014.0
20260502053053 41 0.0 0.0 0.00 0.00 0.00 69 1014.1
20260502051610 41 0.0 0.0 0.00 0.00 0.00 68 1014.4
20260502050053 42 0.0 0.0 0.00 0.00 0.00 68 1014.7
20260502044552 42 0.0 0.0 0.00 0.00 0.00 68 1015.0
20260502043057 42 0.0 0.0 0.00 0.00 0.00 67 1015.1
20260502041555 41 0.0 0.0 0.00 0.00 0.00 66 1015.3
20260502034555 42 0.0 0.0 0.00 0.00 0.00 64 1015.5
20260502033108 43 0.0 0.0 0.00 0.00 0.00 63 1015.7
20260502031551 44 0.0 0.0 0.00 0.00 0.00 61 1015.6
20260502030100 45 0.0 0.0 0.00 0.00 0.00 59 1015.6
20260502024556 46 0.0 0.0 0.00 0.00 0.00 57 1015.5
20260502023114 47 0.0 0.0 0.00 0.00 0.00 54 1015.5
20260502021552 49 0.0 0.0 0.00 0.00 0.00 50 1015.5
20260502020103 51 0.0 0.0 0.00 0.00 0.00 48 1015.4
20260502014553 52 0.0 0.0 0.00 0.00 0.00 47 1015.5
20260502013103 54 0.0 0.0 0.00 0.00 0.00 43 1015.5
20260502011549 55 0.0 0.0 0.00 0.00 0.00 40 1015.5
20260502010053 57 0.0 0.0 0.00 0.00 0.00 38 1015.4
20260502004605 58 0.0 0.0 0.00 0.00 0.00 36 1015.5
20260502003055 59 0.0 0.0 0.00 0.00 0.00 35 1015.5
20260502001605 59 0.0 0.0 0.00 0.00 0.00 33 1015.7
20260502000101 59 0.0 0.0 0.00 0.00 0.00 33 1015.7
20260501234555 60 0.0 0.0 0.00 0.00 0.00 32 1015.8
20260501233058 60 0.0 0.0 0.00 0.00 0.00 33 1016.0
20260501231554 60 0.0 0.0 0.00 0.00 0.00 32 1016.2
20260501230057 60 0.0 0.0 0.00 0.00 0.00 32 1016.3
20260501224551 60 0.0 0.0 0.00 0.00 0.00 30 1016.5
20260501223050 60 0.0 0.0 0.00 0.00 0.00 31 1016.7
20260501221552 60 0.0 0.0 0.00 0.00 0.00 29 1016.7
20260501220134 60 0.0 0.0 0.00 0.00 0.00 29 1017.2
20260501214549 59 0.0 0.0 0.00 0.00 0.00 29 1017.3
20260501213100 60 0.0 0.0 0.00 0.00 0.00 31 1017.6
20260501211556 60 0.0 0.0 0.00 0.00 0.00 29 1017.7
20260501210105 59 0.0 0.0 0.00 0.00 0.00 30 1017.9
20260501204558 59 0.0 0.0 0.00 0.00 0.00 31 1018.1
20260501203051 59 0.0 0.0 0.00 0.00 0.00 33 1018.2
20260501201556 58 0.0 0.0 0.00 0.00 0.00 31 1018.2
20260501200056 57 0.0 0.0 0.00 0.00 0.00 31 1018.4
20260501194552 57 0.0 0.0 0.00 0.00 0.00 33 1018.4
20260501193053 57 0.0 0.0 0.00 0.00 0.00 33 1018.5
20260501191600 56 0.0 0.0 0.00 0.00 0.00 33 1018.8
20260501184553 55 0.0 0.0 0.00 0.00 0.00 34 1019.1
20260501183103 55 0.0 0.0 0.00 0.00 0.00 34 1019.1
20260501181605 55 0.0 0.0 0.00 0.00 0.00 32 1019.3